Location: Unspecified
(49.2170°N, 0.0000°E)
Time: 21:50:32
(UTC+00:00)

A-11 Canister half - Pass Details

Date: 25 June 2019
Orbit: 1526 x 1683 km, 47.3° (Epoch: 19 July)

Event Time Altitude Azimuth Distance (km) Brightness Sun altitude
Rises 01:41:49 0° 184° (S) 4,784 - -14.1°
Exits shadow 01:45:40 - 170° (S) 3,879 10.6 -13.8°
Reaches altitude 10° 01:46:11 10° 168° (SSE) 3,774 10.6 -13.8°
Maximum altitude 01:52:04 18° 129° (SE) 3,125 10.5 -13.4°
Drops below altitude 10° 01:57:52 10° 90° (E) 3,720 11.4 -13.0°
Sets 02:02:06 0° 73° (ENE) 4,692 12.3 -12.7°
